TimeGMT,TemperatureF,Dew PointF,Humidity,Sea Level PressureIn,VisibilityMPH,Wind Direction,Wind SpeedMPH,Gust SpeedMPH,PrecipitationIn,Events,Conditions,WindDirDegrees,DateUTC
12:20 AM,35.6,33.8,93,29.53,3.1,NE,4.6,-,N/A,,Haze,40,2013-03-20 00:20:00
12:50 AM,35.6,33.8,93,29.53,-9999.0,NE,5.8,-,N/A,,Haze,40,2013-03-20 00:50:00
1:20 AM,35.6,33.8,93,29.53,-9999.0,NE,6.9,-,N/A,,Haze,50,2013-03-20 01:20:00
1:50 AM,35.6,33.8,93,29.53,-9999.0,NE,5.8,-,N/A,,Haze,50,2013-03-20 01:50:00
2:20 AM,35.6,33.8,93,29.53,3.7,NE,6.9,-,N/A,,Overcast,50,2013-03-20 02:20:00
2:50 AM,36,34,88,29.54,5,NE,8.1,,,,Light Haze,40,2013-03-20 02:50:00
2:50 AM,35.6,33.8,93,29.53,3.7,NE,6.9,-,N/A,,Overcast,40,2013-03-20 02:50:00
3:20 AM,35.6,33.8,93,29.53,4.3,ENE,4.6,-,N/A,,Mostly Cloudy,60,2013-03-20 03:20:00
3:50 AM,37.4,33.8,87,29.53,4.3,NNE,4.6,-,N/A,,Mostly Cloudy,30,2013-03-20 03:50:00
4:20 AM,37.4,33.8,87,29.53,3.7,NNW,4.6,-,N/A,,Mostly Cloudy,330,2013-03-20 04:20:00
4:50 AM,37.4,33.8,87,29.56,3.1,NNW,4.6,-,N/A,,Mostly Cloudy,340,2013-03-20 04:50:00
5:20 AM,37.4,33.8,87,29.56,-9999.0,Variable,3.5,-,N/A,,Haze,0,2013-03-20 05:20:00
5:50 AM,37,36,92,29.57,2,NNW,5.8,,,,Unknown Precipitation,330,2013-03-20 05:50:00
5:50 AM,37.4,35.6,93,29.56,1.6,NW,4.6,-,N/A,,Haze,320,2013-03-20 05:50:00
6:20 AM,37.4,35.6,93,29.59,1.4,NW,6.9,-,N/A,,Haze,320,2013-03-20 06:20:00
6:50 AM,37.4,35.6,93,29.59,1.6,NNW,5.8,-,N/A,,Mostly Cloudy,330,2013-03-20 06:50:00
7:20 AM,37.4,35.6,93,29.59,1.6,NNW,4.6,-,N/A,,Mostly Cloudy,330,2013-03-20 07:20:00
7:50 AM,39.2,35.6,87,29.62,1.6,NNW,4.6,-,N/A,,Haze,330,2013-03-20 07:50:00
8:20 AM,39.2,37.4,93,29.62,1.6,Variable,3.5,-,N/A,,Haze,0,2013-03-20 08:20:00
8:50 AM,40,38,88,29.64,2,North,4.6,,,,Light Haze,350,2013-03-20 08:50:00
8:50 AM,41.0,37.4,87,29.62,1.6,North,5.8,-,N/A,,Haze,360,2013-03-20 08:50:00
9:20 AM,41.0,37.4,87,29.65,2.8,NNE,5.8,-,N/A,,Haze,20,2013-03-20 09:20:00
9:50 AM,41.0,37.4,87,29.68,3.1,North,6.9,-,N/A,,Haze,10,2013-03-20 09:50:00
10:20 AM,42.8,35.6,76,29.68,3.1,North,5.8,-,N/A,,Haze,360,2013-03-20 10:20:00
10:50 AM,42.8,35.6,76,29.71,3.1,NNE,6.9,-,N/A,,Haze,30,2013-03-20 10:50:00
11:20 AM,42.8,33.8,70,29.71,5.0,NNW,8.1,-,N/A,,Scattered Clouds,340,2013-03-20 11:20:00
11:50 AM,44,35,60,29.73,4,North,8.1,,,,Light Haze,350,2013-03-20 11:50:00
11:50 AM,44.6,35.6,71,29.71,5.0,North,6.9,-,N/A,,Mostly Cloudy,350,2013-03-20 11:50:00
12:20 PM,42.8,35.6,76,29.74,4.3,North,5.8,-,N/A,,Mostly Cloudy,360,2013-03-20 12:20:00
12:50 PM,42.8,35.6,76,29.77,4.3,NNW,6.9,-,N/A,,Mostly Cloudy,330,2013-03-20 12:50:00
1:20 PM,42.8,35.6,76,29.77,4.3,NNW,6.9,-,N/A,,Mostly Cloudy,340,2013-03-20 13:20:00
1:50 PM,42.8,37.4,81,29.77,3.1,North,9.2,-,N/A,,Haze,350,2013-03-20 13:50:00
2:20 PM,41.0,37.4,87,29.80,2.5,North,6.9,-,N/A,,Haze,360,2013-03-20 14:20:00
2:50 PM,42,37,75,29.82,3,NNW,6.9,,,,Light Haze,340,2013-03-20 14:50:00
2:50 PM,41.0,35.6,81,29.80,3.1,North,5.8,-,N/A,,Haze,350,2013-03-20 14:50:00
3:20 PM,42.8,35.6,76,29.83,3.7,NNE,5.8,-,N/A,,Mostly Cloudy,20,2013-03-20 15:20:00
3:50 PM,42.8,35.6,76,29.83,4.3,NNE,6.9,-,N/A,,Mostly Cloudy,30,2013-03-20 15:50:00
4:20 PM,41.0,35.6,81,29.83,5.0,NNE,5.8,-,N/A,,Overcast,30,2013-03-20 16:20:00
4:50 PM,41.0,35.6,81,29.86,4.3,North,6.9,-,N/A,,Mostly Cloudy,10,2013-03-20 16:50:00
5:20 PM,41.0,35.6,81,29.89,4.3,NE,6.9,-,N/A,,Mostly Cloudy,50,2013-03-20 17:20:00
5:50 PM,39,35,80,29.91,4,NE,8.1,,,,Light Haze,40,2013-03-20 17:50:00
5:50 PM,39.2,33.8,81,29.89,3.7,NE,6.9,-,N/A,,Mostly Cloudy,50,2013-03-20 17:50:00
6:20 PM,39.2,33.8,81,29.92,3.1,NE,6.9,-,N/A,,Haze,50,2013-03-20 18:20:00
6:50 PM,39.2,33.8,81,29.95,3.7,ENE,6.9,-,N/A,,Mostly Cloudy,60,2013-03-20 18:50:00
7:20 PM,39.2,33.8,81,29.95,4.3,ENE,6.9,-,N/A,,Mostly Cloudy,60,2013-03-20 19:20:00
7:50 PM,39.2,33.8,81,29.95,3.7,NE,5.8,-,N/A,,Mostly Cloudy,50,2013-03-20 19:50:00
8:20 PM,39.2,33.8,81,29.98,3.7,NE,6.9,-,N/A,,Mostly Cloudy,50,2013-03-20 20:20:00
8:50 PM,39,33,73,29.98,5,NE,6.9,,,,Light Haze,50,2013-03-20 20:50:00
8:50 PM,39.2,33.8,81,29.98,4.3,ENE,6.9,-,N/A,,Mostly Cloudy,60,2013-03-20 20:50:00
9:20 PM,39.2,33.8,81,29.98,4.3,East,6.9,-,N/A,,Mostly Cloudy,80,2013-03-20 21:20:00
9:50 PM,37.4,33.8,87,29.98,4.3,East,6.9,-,N/A,,Mostly Cloudy,80,2013-03-20 21:50:00
10:20 PM,37.4,33.8,87,30.01,4.3,ENE,5.8,-,N/A,,Overcast,70,2013-03-20 22:20:00
10:50 PM,37.4,33.8,87,30.01,4.3,East,4.6,-,N/A,,Mostly Cloudy,80,2013-03-20 22:50:00
11:20 PM,37.4,33.8,87,30.01,4.3,East,8.1,-,N/A,,Mostly Cloudy,100,2013-03-20 23:20:00
11:50 PM,38,33,77,30.01,6,ESE,5.8,,,,Light Haze,120,2013-03-20 23:50:00
11:50 PM,37.4,33.8,87,30.01,4.3,East,6.9,-,N/A,,Overcast,100,2013-03-20 23:50:00